TimeHST,TemperatureF,Dew PointF,Humidity,Sea Level PressureIn,VisibilityMPH,Wind Direction,Wind SpeedMPH,Gust SpeedMPH,PrecipitationIn,Events,Conditions,WindDirDegrees,DateUTC
12:53 AM,70.0,64.9,84,30.07,10.0,Calm,Calm,-,0.00,Rain,Light Rain,0,2011-11-10 10:53:00
1:07 AM,69.8,66.2,88,30.07,1.8,Calm,Calm,-,0.02,Rain,Heavy Rain,0,2011-11-10 11:07:00
1:15 AM,69.8,66.2,88,30.07,3.0,Calm,Calm,-,0.17,Rain,Rain,0,2011-11-10 11:15:00
1:53 AM,71.1,66.9,87,30.06,10.0,West,4.6,-,0.19,,Overcast,280,2011-11-10 11:53:00
2:01 AM,69.8,66.2,88,30.06,10.0,West,5.8,-,N/A,,Overcast,270,2011-11-10 12:01:00
2:27 AM,69.8,66.2,88,30.06,1.8,West,4.6,-,0.06,Rain,Heavy Rain,270,2011-11-10 12:27:00
2:33 AM,69.8,66.2,88,30.06,3.0,West,5.8,-,0.10,Rain,Rain,280,2011-11-10 12:33:00
2:53 AM,69.1,66.0,90,30.05,10.0,SW,5.8,-,0.11,,Overcast,220,2011-11-10 12:53:00
3:53 AM,68.0,64.9,90,30.04,10.0,WSW,5.8,-,0.00,Rain,Light Rain,250,2011-11-10 13:53:00
4:53 AM,68.0,64.9,90,30.04,10.0,SW,4.6,-,0.00,,Mostly Cloudy,230,2011-11-10 14:53:00
5:53 AM,69.1,64.9,87,30.06,10.0,WNW,5.8,-,0.03,,Mostly Cloudy,300,2011-11-10 15:53:00
6:53 AM,69.1,64.9,87,30.08,10.0,Calm,Calm,-,0.02,,Scattered Clouds,0,2011-11-10 16:53:00
7:42 AM,71.6,66.2,83,30.10,10.0,West,5.8,-,0.00,,Mostly Cloudy,280,2011-11-10 17:42:00
7:53 AM,72.0,66.9,84,30.10,9.0,West,4.6,-,0.00,Rain,Light Rain,270,2011-11-10 17:53:00
8:21 AM,71.6,66.2,83,30.11,10.0,West,4.6,-,0.01,,Overcast,270,2011-11-10 18:21:00
8:50 AM,75.2,66.2,73,30.12,10.0,NNW,5.8,-,0.01,,Mostly Cloudy,340,2011-11-10 18:50:00
8:53 AM,75.0,66.9,76,30.12,10.0,North,3.5,-,0.01,,Mostly Cloudy,350,2011-11-10 18:53:00
9:23 AM,75.2,68.0,78,30.12,10.0,ENE,10.4,-,N/A,,Overcast,60,2011-11-10 19:23:00
9:53 AM,75.9,66.9,74,30.12,10.0,NNE,4.6,-,N/A,,Mostly Cloudy,30,2011-11-10 19:53:00
10:53 AM,75.9,66.9,74,30.11,10.0,NNW,6.9,-,N/A,,Mostly Cloudy,330,2011-11-10 20:53:00
11:53 AM,78.1,64.9,64,30.08,10.0,NNW,4.6,-,N/A,Rain,Light Rain,340,2011-11-10 21:53:00
12:53 PM,75.9,66.0,71,30.07,6.0,NNE,8.1,-,0.00,,Mostly Cloudy,30,2011-11-10 22:53:00
1:53 PM,77.0,66.0,69,30.03,10.0,WNW,4.6,-,0.02,,Mostly Cloudy,290,2011-11-10 23:53:00
2:53 PM,77.0,66.0,69,30.02,6.0,North,6.9,-,0.00,Rain,Light Rain,350,2011-11-11 00:53:00
3:53 PM,75.9,66.0,71,30.02,10.0,NNW,4.6,-,0.02,,Mostly Cloudy,330,2011-11-11 01:53:00
4:04 PM,73.4,66.2,78,30.03,7.0,North,4.6,-,0.00,Rain,Light Rain,360,2011-11-11 02:04:00
4:24 PM,73.4,66.2,78,30.03,10.0,NW,6.9,-,0.00,,Mostly Cloudy,310,2011-11-11 02:24:00
4:53 PM,72.0,64.0,76,30.04,3.0,East,5.8,-,0.04,Rain,Heavy Rain,80,2011-11-11 02:53:00
5:01 PM,71.6,66.2,83,30.04,3.0,Calm,Calm,-,0.04,Rain,Rain,0,2011-11-11 03:01:00
5:53 PM,71.1,66.0,84,30.06,10.0,West,3.5,-,0.06,,Mostly Cloudy,270,2011-11-11 03:53:00
6:53 PM,70.0,66.0,87,30.09,10.0,West,8.1,-,0.10,,Overcast,260,2011-11-11 04:53:00
7:53 PM,70.0,64.9,84,30.11,10.0,West,4.6,-,N/A,,Overcast,280,2011-11-11 05:53:00
8:53 PM,70.0,66.0,87,30.11,10.0,West,6.9,-,0.00,Rain,Light Rain,260,2011-11-11 06:53:00
9:53 PM,69.1,64.9,87,30.12,10.0,West,6.9,-,0.05,,Mostly Cloudy,260,2011-11-11 07:53:00
10:23 PM,69.8,64.4,83,30.12,10.0,SW,5.8,-,0.02,Rain,Light Rain,230,2011-11-11 08:23:00
10:53 PM,69.1,64.9,87,30.12,10.0,WSW,4.6,-,0.05,,Mostly Cloudy,250,2011-11-11 08:53:00
11:36 PM,68.0,64.4,88,30.10,10.0,WSW,8.1,-,N/A,,Mostly Cloudy,250,2011-11-11 09:36:00
11:53 PM,68.0,64.0,87,30.10,10.0,WSW,3.5,-,N/A,,Overcast,250,2011-11-11 09:53:00